DL9SEC-13 Weather Reports


time (UTC)temp
C
wind
direction
speed
KPH
gust
KPH
rain 1hr
cm
rain 24hr
cm
rain mn
cm
humidity
%
barometer
mb
20260506134003 18 270 1.6 1.6 0.00 0.10 0.00 64 1008.7
20260506132503 19 270 0.0 0.0 0.00 0.10 0.00 63 1008.6
20260506131003 18 270 1.6 1.6 0.00 0.18 0.00 65 1008.7
20260506125503 17 270 1.6 1.6 0.00 0.18 0.00 69 1008.8
20260506124003 17 270 0.0 0.0 0.00 0.43 0.00 67 1008.9
20260506122502 17 270 0.0 0.0 0.00 0.51 0.00 68 1009.0
20260506121002 17 270 1.6 1.6 0.00 0.51 0.00 71 1008.9
20260506115502 17 270 4.8 4.8 0.00 0.51 0.00 68 1009.0
20260506114002 17 292 0.0 0.0 0.00 0.51 0.00 67 1009.0
20260506112502 18 315 1.6 1.6 0.00 0.51 0.00 64 1009.0
20260506111003 18 292 0.0 0.0 0.00 0.51 0.00 63 1009.3
20260506105503 17 292 0.0 0.0 0.00 0.51 0.00 61 1009.5
20260506104003 17 292 3.2 3.2 0.00 0.51 0.00 63 1009.7
20260506102503 17 248 0.0 0.0 0.00 0.51 0.00 62 1009.9
20260506101003 17 292 0.0 0.0 0.00 0.51 0.00 61 1009.8
20260506095502 17 292 4.8 4.8 0.00 0.51 0.00 63 1009.8
20260506094003 18 270 0.0 0.0 0.00 0.51 0.00 65 1009.9
20260506092503 17 270 1.6 1.6 0.00 0.51 0.00 64 1009.7
20260506091003 17 270 8.0 8.0 0.00 0.51 0.00 64 1009.7
20260506085503 18 68 0.0 0.0 0.00 0.51 0.00 66 1009.8
20260506084003 16 292 3.2 3.2 0.00 0.51 0.00 66 1009.8
20260506082502 16 22 0.0 0.0 0.00 0.51 0.00 70 1009.9
20260506081002 15 22 0.0 0.0 0.00 0.51 0.00 77 1009.9
20260506072502 15 68 0.0 0.0 0.00 0.51 0.00 77 1010.0
20260506071002 14 90 3.2 3.2 0.00 0.51 0.00 76 1010.0
20260506062502 11 68 3.2 3.2 0.00 0.51 0.00 89 1009.9
20260506061003 11 68 3.2 3.2 0.00 0.51 0.00 89 1010.0
20260506051003 10 158 8.0 8.0 0.00 0.51 0.00 90 1010.2
20260506044003 9 90 0.0 0.0 0.00 0.51 0.00 92 1010.3
20260506042503 9 68 3.2 3.2 0.00 0.51 0.00 93 1010.4
20260506041003 10 68 1.6 1.6 0.00 0.51 0.00 92 1010.5
20260506035503 9 68 1.6 1.6 0.00 0.51 0.00 92 1010.6
20260506034003 9 112 1.6 1.6 0.00 0.51 0.00 93 1010.8
20260506032503 9 90 0.0 0.0 0.00 0.51 0.00 93 1010.8
20260506031002 9 68 4.8 4.8 0.00 0.51 0.00 94 1010.8
20260506025502 9 68 0.0 0.0 0.00 0.51 0.00 94 1010.8
20260506024002 9 68 4.8 4.8 0.00 0.51 0.00 95 1010.8
20260506022502 8 90 0.0 0.0 0.00 0.51 0.00 95 1010.7
20260506021002 9 90 0.0 0.0 0.00 0.51 0.00 95 1011.0
20260506015502 9 90 0.0 0.0 0.00 0.51 0.00 95 1011.1
20260506014002 9 68 0.0 0.0 0.00 0.51 0.00 95 1011.3
20260506012502 9 68 3.2 3.2 0.00 0.51 0.00 96 1011.2
20260506011003 9 68 1.6 1.6 0.00 0.51 0.00 95 1011.0
20260506005503 9 68 1.6 1.6 0.00 0.51 0.00 95 1011.0
20260506004003 9 68 0.0 0.0 0.00 0.51 0.00 95 1011.1
20260506002503 10 68 0.0 0.0 0.00 0.51 0.00 95 1011.5
20260506001003 10 68 4.8 4.8 0.00 0.51 0.00 95 1011.6
20260505235502 10 68 4.8 4.8 0.00 0.51 0.00 95 1011.7
20260505234002 10 68 4.8 6.4 0.00 0.51 0.00 94 1011.7
20260505232502 10 112 1.6 1.6 0.00 0.51 0.00 94 1011.9
20260505231003 10 68 1.6 1.6 0.00 0.51 0.00 94 1011.9
20260505225502 11 90 1.6 1.6 0.00 0.51 0.00 94 1011.7
20260505224002 11 90 3.2 3.2 0.00 0.51 0.00 94 1011.8
20260505222503 11 112 6.4 6.4 0.00 0.51 0.00 93 1011.7
20260505221003 11 112 3.2 3.2 0.00 0.51 0.00 92 1011.7
20260505215503 12 90 0.0 0.0 0.00 0.51 0.51 92 1011.7
20260505214002 12 90 4.8 4.8 0.00 0.51 0.51 90 1011.8
20260505212502 12 90 0.0 0.0 0.00 0.51 0.51 89 1011.8
20260505211003 12 90 3.2 3.2 0.00 0.51 0.51 90 1011.9
20260505205503 12 90 1.6 1.6 0.00 0.51 0.51 92 1011.8
20260505204002 12 68 3.2 3.2 0.00 0.51 0.51 93 1011.8
20260505202503 13 112 3.2 3.2 0.00 0.51 0.51 92 1011.4
20260505201002 13 90 4.8 4.8 0.00 0.51 0.51 94 1011.4
20260505195503 13 90 3.2 3.2 0.00 0.51 0.51 94 1011.2
20260505194003 13 90 1.6 1.6 0.00 0.51 0.51 94 1011.1
20260505192503 13 112 3.2 3.2 0.00 0.51 0.51 94 1011.1
20260505191002 13 90 0.0 0.0 0.08 0.51 0.51 94 1010.9
20260505185503 13 90 0.0 0.0 0.08 0.51 0.51 93 1010.9
20260505184003 13 292 0.0 0.0 0.08 0.51 0.51 93 1011.1
20260505182503 13 292 0.0 0.0 0.08 0.51 0.51 91 1011.0
20260505181003 14 292 0.0 0.0 0.00 0.43 0.43 89 1011.0
20260505175502 15 292 1.6 1.6 0.00 0.43 0.43 86 1010.9
20260505174003 15 292 0.0 0.0 0.00 0.43 0.43 86 1010.7
20260505172503 16 292 1.6 1.6 0.00 0.43 0.43 80 1010.7
20260505171003 18 292 0.0 0.0 0.00 0.43 0.43 78 1010.5
20260505165503 18 292 3.2 3.2 0.00 0.43 0.43 69 1010.5
20260505164003 16 292 0.0 0.0 0.00 0.43 0.43 76 1010.6
20260505162503 16 292 1.6 1.6 0.00 0.43 0.43 80 1010.5
20260505161003 16 315 4.8 6.4 0.00 0.43 0.43 80 1010.6
20260505152503 15 270 3.2 3.2 0.00 0.43 0.43 87 1010.9
20260505151003 14 292 6.4 8.0 0.00 0.43 0.43 89 1011.1